Weather Roundup
Issued by NWS Chicago, IL

Home | Current Version | Previous Version | Graphics & Text | Print | Product List | Glossary On
Versions: 1 2 3 4 5 6 7 8 9 10 11 12 13 14 15 16 17 18 19 20 21 22 23 24 25 26 27 28 29 30 31 32 33 34 35 36 37 38 39 40 41 42 43 44 45 46 47 48 49 50
000
NZUS59 KLOT 040858
HRRLOT

CHICAGO AREA WEATHER ROUNDUP
NATIONAL WEATHER SERVICE CHICAGO/ROMEOVILLE IL
400 AM CDT WED MAY 04 2016

NOTE: "FAIR" INDICATES FEW OR NO CLOUDS BELOW 12,000 FEET WITH NO
SIGNIFICANT WEATHER AND/OR OBSTRUCTIONS TO VISIBILITY.

* THESE STATIONS ARE NOT UNDER NWS QUALITY CONTROL. THEY ALSO MAY NOT
  REPORT WEATHER SUCH AS PRECIPITATION OR FOG.

ILZ005-006-012>014-019>023-041000-
NORTHEAST ILLINOIS

CITY           SKY/WX    TMP DP  RH WIND       PRES   REMARKS
OHARE          CLOUDY    49  47  93 NW6       29.62S
MIDWAY         NOT AVBL
AURORA         NOT AVBL
WAUKEGAN       NOT AVBL
DUPAGE AIRPORT NOT AVBL
WHEELING       NOT AVBL
$$

WIZ051-052-058>065-066-070>072-041000-
SOUTHEAST WISCONSIN

CITY           SKY/WX    TMP DP  RH WIND       PRES   REMARKS
MILWAUKEE      CLOUDY    46  41  81 N22G31    29.67R
KENOSHA*       CLOUDY    48  45  89 N7        29.65R
RACINE*        CLOUDY    47  45  93 N12       29.67R
$$

INZ001>003-010>013-019-020-041000-
NORTHWEST INDIANA

CITY           SKY/WX    TMP DP  RH WIND       PRES   REMARKS
GARY*          NOT AVBL
MICHIGAN CITY* NOT AVBL
RENSSELAER*    NOT AVBL
$$

LMZ740>746-041000-
SOUTHERN LAKE MICHIGAN

STATION/POSITION TIME  SKY/WX   TEMP WIND        PRES    VSBY
                                AIR  DIR/SP/G
                 (UTC)          (F)  (DEG/KT/KT) (MB)    (MI)
HARRISON CRIB    0800            50  340/ 13/ 13   N/A
BURNHAM HARBOR   0800            51  340/  7/ 20   N/A
CALUMET HARBOR   0800            51  300/  5/ 11 1003.2R
BURNS HARBOR     0802            52  250/ 13     1004.4R
MICHIGAN CITY    0800            51  230/ 25/ 29   N/A
$$

ABBREVIATIONS USED IN REMARKS
   TC - TEMPERATURE IN CELSIUS
  WCI - WIND CHILL INDEX
   HX - HEAT INDEX
  VSB - VISIBILITY
$$




USA.gov is the U.S. government's official web portal to all federal, state and local government web resources and services.